[[{"header":{"parameterUnit":"m.s-1","parameterCategory":1,"la1":30.2991,"la2":30.254,"lo1":-89.0895,"lo2":-89.0444,"dy":0.0017,"dx":0.0017,"nx":28,"ny":28,"refTime":"2024-06-19T03:00:00:Z","depth":0,"parameterNumber":2,"parameterNumberName":"U-component_of_WINDS"},"data":[0,0,0,0,0,0,0,0,0,0,0,0,0,0,0,0,0,0,0,0,0,0,0,0,0,0,0,0,0,0,0,0,0,0,0,0,0,0,0,0,0,0,0,0,0,0,0,0,0,0,0,0,0,0,0,0,0,0,-6.4823,-6.4823,0,-6.4782,-6.4782,-6.4782,-6.4631,-6.4628,-6.4624,-6.4621,-6.4582,-6.4584,-6.4586,0,0,0,0,0,0,0,0,0,0,0,0,0,-6.4775,-6.4776,-6.4823,-6.4823,-6.4822,-6.4783,-6.4782,-6.4781,-6.4632,-6.4628,-6.4623,-6.462,-6.4581,-6.4584,-6.4586,0,0,0,0,0,0,0,0,0,0,0,0,0,-6.4771,-6.4777,-6.4823,-6.4743,-6.4735,-6.4783,-6.4782,-6.4781,-6.4633,-6.4628,-6.4622,-6.4618,-6.458,-6.4583,-6.4587,-6.4709,0,0,-6.4596,-6.4598,0,0,0,0,0,0,0,0,-6.4772,-6.4773,-6.4755,-6.4748,-6.474,-6.4707,-6.475,-6.4757,-6.4634,-6.4672,-6.4621,-6.4615,-6.4628,-6.4627,-6.463,-6.4707,-6.4706,-6.4597,-6.4599,-6.46,-6.4601,0,0,0,0,0,0,0,-6.4772,-6.4774,-6.4807,-6.4755,-6.4746,-6.471,-6.4703,-6.4751,-6.4679,-6.4668,-6.4657,-6.4654,-6.4623,-6.4628,-6.4628,-6.4705,-6.4597,-6.4599,-6.4601,-6.4603,-6.4882,-6.4887,0,0,0,0,0,0,-6.4783,-6.4775,-6.4808,-6.4806,-6.4743,-6.4715,-6.4708,-6.4723,-6.4678,-6.4666,-6.4659,-6.4647,-6.4625,-6.4625,-6.4626,-6.4767,-6.46,-6.4603,-6.4605,-6.4876,-6.4883,-6.4889,0,0,0,0,0,0,-6.4783,-6.4788,-6.481,-6.4788,-6.4788,-6.4721,-6.4739,-6.4724,-6.4729,-6.4671,-6.4658,-6.4677,-6.4621,-6.4622,-6.469,-6.4763,-6.4604,-6.4607,-6.487,-6.4878,-6.4886,-6.5049,0,0,0,0,0,0,-6.4782,-6.4788,-6.4834,-6.479,-6.4789,-6.4874,-6.4743,-6.4727,-6.4735,-6.472,-6.4684,-6.4674,-6.4617,-6.4686,-6.4693,-6.4765,-6.461,-6.4863,-6.4873,-6.4883,-6.5037,-6.5062,-6.5083,0,0,0,0,0,-6.4781,-6.4882,-6.4837,-6.4841,-6.4844,-6.4878,-6.4878,-6.4809,-6.4742,-6.4787,-6.4749,-6.4675,-6.4755,-6.4694,-6.4701,-6.4775,-6.4858,-6.487,-6.4882,-6.5026,-6.5057,-6.5083,0,0,0,0,0,0,-6.4936,-6.4874,-6.4824,-6.4913,-6.4902,-6.4853,-6.4907,-6.4844,-6.4853,-6.4838,-6.4754,-6.4747,-6.4827,-6.4808,-6.4742,-6.4892,-6.4794,-6.4808,-6.4901,-6.4929,-6.4952,-6.4954,-6.4613,0,0,0,0,0,-6.4981,-6.5013,-6.4957,-6.5041,-6.5038,-6.4975,-6.4987,-6.4935,-6.492,-6.4915,-6.4883,-6.4872,-6.4895,-6.4911,-6.4929,-6.5034,-6.5024,-6.5088,-6.5112,-6.5131,-6.5144,-6.5198,-6.5226,-6.4929,-6.4929,-6.4929,0,0,-6.5073,-6.5043,-6.5068,-6.5072,-6.5057,-6.5093,-6.4971,-6.5014,-6.504,-6.4922,-6.4983,-6.496,-6.4943,-6.503,-6.5067,-6.5016,-6.5224,-6.5147,-6.5163,-6.5165,-6.5214,-6.5242,-6.5267,-6.4938,-6.4936,-6.4935,0,0,-6.5259,-6.524,-6.5308,-6.5296,-6.5275,-6.5232,-6.5249,-6.521,-6.5189,-6.525,-6.5162,-6.5193,-6.5233,-6.5224,-6.5225,-6.5411,-6.5343,-6.5419,-6.554,-6.5594,-6.5617,-6.5638,-6.5703,-6.5728,-6.5433,-6.5433,-6.5433,0,-6.5376,-6.5425,-6.5351,-6.5399,-6.5403,-6.5299,-6.5367,-6.536,-6.5347,-6.5352,-6.5296,-6.5345,-6.5326,-6.541,-6.5455,-6.546,-6.5477,-6.5422,-6.562,-6.564,-6.5657,-6.5719,-6.5744,-6.5442,-6.5441,-6.544,-6.544,0,-6.557,-6.5606,-6.5664,-6.5653,-6.5664,-6.5723,-6.5658,-6.5678,-6.5627,-6.5591,-6.5654,-6.5629,-6.5639,-6.5656,-6.5606,-6.5733,-6.5702,-6.5635,-6.5534,-6.5696,-6.5753,-6.5776,-6.5456,-6.5453,-6.545,-6.5447,0,0,-6.585,-6.5799,-6.5821,-6.5815,-6.5785,-6.5812,-6.5867,-6.5877,-6.5896,-6.5891,-6.5935,-6.5973,-6.591,-6.5912,-6.5861,-6.5908,-6.6057,-6.5834,-6.5833,-6.5876,-6.6195,-6.6244,-6.6273,-6.6012,-6.6016,-6.602,-6.6196,0,-6.6026,-6.6114,-6.605,-6.615,-6.6183,-6.6085,-6.6133,-6.6121,-6.6089,-6.6113,-6.6078,-6.6105,-6.6021,-6.6021,-6.6065,-6.6029,-6.6119,-6.6016,-6.6052,-6.6054,-6.6057,-6.6302,-6.6355,-6.6522,-6.6217,-6.6221,-6.6224,0,-6.6242,-6.6246,-6.635,-6.6314,-6.6325,-6.6369,-6.6373,-6.6397,-6.6383,-6.6356,-6.6359,-6.6296,-6.6348,-6.6252,-6.6322,-6.6254,-6.6265,-6.6251,-6.6256,-6.6255,-6.6147,-6.6307,-6.6574,-6.6598,-6.6258,-6.6255,-6.6253,0,-6.6434,-6.6467,-6.6532,-6.6531,-6.6491,-6.6524,-6.651,-6.649,-6.65,-6.6505,-6.6511,-6.6522,-6.6528,-6.6539,-6.6481,-6.6416,-6.656,-6.6458,-6.6539,-6.6541,-6.6572,-6.6571,-6.6843,-6.6583,-6.6583,-6.6582,-6.6582,0,-6.6636,-6.6703,-6.6618,-6.6659,-6.6731,-6.6658,-6.6732,-6.6707,-6.6691,-6.6725,-6.6643,-6.6677,-6.66,-6.6627,-6.6582,-6.6648,-6.6652,-6.6632,-6.6619,-6.6638,-6.6641,-6.6643,-6.6629,-6.6589,-6.6587,-6.6586,-6.6585,0,-6.6862,-6.6808,-6.6873,-6.6831,-6.6822,-6.6878,-6.6842,-6.6878,-6.6842,-6.6887,-6.6894,-6.6837,-6.6864,-6.6808,-6.6829,-6.6799,-6.6891,-6.6861,-6.6896,-6.6886,-6.697,-6.6963,-6.7252,-6.7286,-6.7006,-6.7009,-6.7011,0,-6.6993,-6.7042,-6.7006,-6.7023,-6.7013,-6.7041,-6.7051,-6.6983,-6.6997,-6.6984,-6.7023,-6.7043,-6.7056,-6.7105,-6.7066,-6.7082,-6.705,-6.7151,-6.7052,-6.707,-6.705,-6.7047,-6.7052,-6.7171,-6.7174,-6.7177,-6.7179,0,-6.7232,-6.7203,-6.722,-6.723,-6.7244,-6.7248,-6.7246,-6.7265,-6.7192,-6.7213,-6.7239,-6.7249,-6.727,-6.7292,-6.7299,-6.7285,-6.7221,-6.7211,-6.723,-6.7249,-6.7267,-6.7258,-6.695,-6.7204,-6.7201,-6.72,-6.7198,-6.7197,-6.7413,-6.7452,-6.7433,-6.7455,-6.7447,-6.7448,-6.7479,-6.7448,-6.7469,-6.7479,-6.7438,-6.7475,-6.746,-6.7462,-6.7456,-6.7484,-6.7439,-6.7467,-6.7474,-6.7482,-6.7495,-6.7265,-6.7485,-6.7484,-6.7484,-6.7483,-6.7482,0,-6.7646,-6.7629,-6.7651,-6.7651,-6.7669,-6.7607,-6.7603,-6.7622,-6.7655,-6.7647,-6.7661,-6.7693,-6.7714,-6.7678,-6.7694,-6.7723,-6.7694,-6.773,-6.7726,-6.7724,-6.7535,-6.7516,-6.7753,-6.7753,-6.7753,-6.7753,-6.7753,-6.7753,-6.7769,-6.7832,-6.7802,-6.786,-6.7843,-6.7877,-6.788,-6.7881,-6.7873,-6.7912,-6.7929,-6.7906,-6.7886,-6.79,-6.7918,-6.7906,-6.7915,-6.7961,-6.794,-6.7763,-6.7737,-6.7712,-6.7693,-6.7964,-6.7964,-6.8126,-6.8128,-6.8129]},{"header":{"parameterUnit":"m.s-1","parameterCategory":1,"la1":30.2991,"la2":30.254,"lo1":-89.0895,"lo2":-89.0444,"dy":0.0017,"dx":0.0017,"nx":28,"ny":28,"refTime":"2024-06-19T03:00:00:Z","depth":0,"parameterNumber":3,"parameterNumberName":"V-component_of_WINDS"},"data":[0,0,0,0,0,0,0,0,0,0,0,0,0,0,0,0,0,0,0,0,0,0,0,0,0,0,0,0,0,0,0,0,0,0,0,0,0,0,0,0,0,0,0,0,0,0,0,0,0,0,0,0,0,0,0,0,0,0,1.4848,1.4848,0,1.4857,1.4857,1.4857,1.4922,1.4923,1.4925,1.4927,1.4929,1.4928,1.4926,0,0,0,0,0,0,0,0,0,0,0,0,0,1.4881,1.488,1.4848,1.4848,1.4848,1.4857,1.4857,1.4857,1.4922,1.4924,1.4925,1.4927,1.493,1.4928,1.4926,0,0,0,0,0,0,0,0,0,0,0,0,0,1.4876,1.488,1.4848,1.4881,1.4884,1.4857,1.4857,1.4857,1.4921,1.4924,1.4926,1.4928,1.493,1.4928,1.4926,1.4865,0,0,1.492,1.4919,0,0,0,0,0,0,0,0,1.4876,1.4874,1.4876,1.4879,1.4882,1.4891,1.487,1.4859,1.4921,1.4907,1.4927,1.4929,1.4914,1.4913,1.491,1.4865,1.4865,1.4919,1.4918,1.4917,1.4917,0,0,0,0,0,0,0,1.4876,1.4874,1.4851,1.4876,1.488,1.4894,1.4896,1.4868,1.4897,1.4908,1.4913,1.4914,1.4916,1.4912,1.491,1.4865,1.4919,1.4918,1.4916,1.4915,1.477,1.4768,0,0,0,0,0,0,1.4873,1.4874,1.4851,1.4851,1.4885,1.4892,1.4894,1.4885,1.4897,1.4901,1.4912,1.4917,1.4914,1.4913,1.491,1.4838,1.4917,1.4915,1.4914,1.4773,1.477,1.4767,0,0,0,0,0,0,1.4873,1.487,1.485,1.4864,1.4863,1.4889,1.4879,1.4884,1.488,1.49,1.4905,1.4902,1.4916,1.4913,1.4876,1.4839,1.4914,1.4912,1.4776,1.4772,1.4768,1.4694,0,0,0,0,0,0,1.4874,1.487,1.4848,1.4863,1.4862,1.4817,1.4877,1.4883,1.4877,1.4884,1.4892,1.4896,1.4918,1.4879,1.4874,1.4838,1.4911,1.4779,1.4774,1.4769,1.47,1.4688,1.4678,0,0,0,0,0,1.4875,1.4825,1.4846,1.4843,1.4835,1.4815,1.4814,1.4842,1.4874,1.4851,1.4864,1.4895,1.4845,1.4875,1.4869,1.4832,1.4781,1.4775,1.477,1.4705,1.4691,1.4679,0,0,0,0,0,0,1.4801,1.4827,1.4851,1.4806,1.4808,1.4826,1.4798,1.4826,1.4817,1.4824,1.4857,1.4859,1.4816,1.4821,1.4853,1.4773,1.4819,1.4812,1.4771,1.4758,1.4747,1.4745,1.4909,0,0,0,0,0,1.4781,1.4764,1.4787,1.4744,1.4745,1.4771,1.4763,1.4785,1.4788,1.4788,1.4798,1.4798,1.4783,1.4771,1.4758,1.4703,1.4704,1.4675,1.4664,1.4655,1.4647,1.4617,1.4604,1.4748,1.4748,1.4748,0,0,1.4736,1.4748,1.4735,1.473,1.4734,1.4714,1.4771,1.4747,1.4732,1.4784,1.4749,1.4757,1.4759,1.4712,1.4692,1.4715,1.4608,1.4647,1.464,1.4637,1.461,1.4596,1.4584,1.4744,1.4744,1.4745,0,0,1.4644,1.4653,1.4618,1.4622,1.4629,1.4647,1.4639,1.4653,1.4661,1.4628,1.4666,1.4648,1.462,1.462,1.4616,1.4527,1.4555,1.4522,1.4464,1.4434,1.4423,1.4413,1.4379,1.4366,1.4515,1.4515,1.4514,0,1.4586,1.456,1.4595,1.457,1.4566,1.4615,1.4579,1.4581,1.4582,1.4577,1.4604,1.4571,1.4576,1.4529,1.4508,1.4504,1.4494,1.4519,1.4422,1.4412,1.4404,1.4371,1.4359,1.451,1.4511,1.4511,1.4512,0,1.4488,1.4469,1.444,1.4442,1.4436,1.4405,1.4434,1.4423,1.4446,1.4461,1.4426,1.4435,1.4423,1.4415,1.4436,1.4371,1.4385,1.4417,1.4462,1.4385,1.4355,1.4343,1.4504,1.4506,1.4507,1.4508,0,0,1.4346,1.4372,1.436,1.4362,1.4374,1.4359,1.4331,1.4323,1.4311,1.4311,1.4286,1.4263,1.4293,1.4289,1.4311,1.4286,1.4212,1.432,1.4321,1.4298,1.4139,1.4113,1.4098,1.4233,1.4231,1.4229,1.4138,0,1.4256,1.421,1.4243,1.419,1.4172,1.422,1.4195,1.4199,1.4213,1.4199,1.4214,1.4196,1.4238,1.4235,1.4213,1.4226,1.418,1.4234,1.4207,1.4206,1.4202,1.4083,1.4055,1.3969,1.4127,1.4125,1.4123,0,1.4144,1.4142,1.4088,1.4105,1.4099,1.4076,1.4071,1.4058,1.4063,1.4075,1.4071,1.4101,1.4072,1.412,1.408,1.4115,1.4107,1.4112,1.411,1.4105,1.4157,1.4072,1.3942,1.3928,1.4106,1.4107,1.4109,0,1.4043,1.4027,1.3993,1.3993,1.4012,1.3995,1.4002,1.401,1.4003,1.3999,1.3994,1.3986,1.3981,1.3973,1.3999,1.4032,1.3954,1.4005,1.3961,1.396,1.3939,1.394,1.3803,1.3939,1.394,1.394,1.394,0,1.3938,1.3902,1.3948,1.3926,1.3887,1.3925,1.3886,1.3897,1.3905,1.3885,1.3927,1.3907,1.3944,1.3927,1.3948,1.391,1.3908,1.3915,1.392,1.391,1.3908,1.3902,1.3907,1.3936,1.3937,1.3938,1.3938,0,1.3817,1.3846,1.3812,1.3834,1.3839,1.3809,1.3828,1.3808,1.3826,1.3801,1.3797,1.3824,1.3807,1.3834,1.3819,1.3833,1.3781,1.3796,1.3779,1.3782,1.3736,1.3739,1.3587,1.3568,1.372,1.3718,1.3717,0,1.3746,1.372,1.374,1.3732,1.3737,1.3722,1.3716,1.3752,1.3744,1.375,1.3728,1.3716,1.3707,1.3677,1.3694,1.3684,1.3697,1.3645,1.3696,1.3686,1.3693,1.3693,1.369,1.3633,1.3632,1.363,1.3629,0,1.3615,1.3632,1.3623,1.3619,1.3612,1.361,1.3611,1.3601,1.3639,1.3628,1.3612,1.3606,1.3593,1.3578,1.3572,1.3577,1.3608,1.3614,1.3603,1.359,1.358,1.3582,1.3747,1.3616,1.3617,1.3618,1.3619,1.3619,1.3516,1.3495,1.3507,1.3495,1.3501,1.3501,1.3483,1.3501,1.3489,1.3482,1.3505,1.3484,1.349,1.3486,1.3488,1.3471,1.3493,1.3478,1.3473,1.3468,1.346,1.3586,1.347,1.347,1.3471,1.3471,1.3472,0,1.3386,1.3396,1.3386,1.3387,1.3378,1.3413,1.3416,1.3405,1.3386,1.3391,1.3383,1.3365,1.3352,1.3369,1.3359,1.3342,1.3356,1.3338,1.3337,1.3338,1.3441,1.3451,1.3326,1.3327,1.3327,1.3327,1.3327,1.3327,1.3317,1.3283,1.3301,1.327,1.3281,1.3262,1.3261,1.3261,1.3265,1.3244,1.3234,1.3247,1.3257,1.3248,1.3237,1.3242,1.3235,1.3211,1.3221,1.3317,1.3331,1.3344,1.3353,1.321,1.321,1.3119,1.3118,1.3118]}]]